Location: Okie-Tex Star Party
(36.8978°N, 102.9520°W)
Time: 15:51:23
(UTC-05:00)

Amateur Radio Satellites - All Passes

Search period start: 25 June 2017 15:21
Search period end: 26 June 2017 15:21
Location: Okie-Tex Star Party, 36.8978°N, 102.9520°W

Satellite Date Start Highest point End Downlink Frequencies (MHz)
Time Altitude Azimuth
Tancredo 1 25 Jun 15:28:06 15:30:48 28° 34° (NNE) 15:33:30 437.200
VELOX 1 25 Jun 15:34:35 15:37:16 16° 294° (WNW) 15:39:57 145.980
ISS 25 Jun 15:45:44 15:48:30 24° 31° (NNE) 15:51:14 437.550
ITUPSAT 1 25 Jun 15:49:56 15:52:23 14° 92° (E) 15:54:49 437.325
DX 1 25 Jun 15:53:32 15:57:16 28° 290° (WNW) 16:01:00 434.975-435.025
BEESAT 25 Jun 15:59:17 16:02:33 18° 94° (E) 16:05:49 436.000
Oscar 19 25 Jun 16:04:24 16:06:44 13° 268° (W) 16:09:05 437.125/150
UKube-1 25 Jun 16:10:54 16:14:32 27° 290° (WNW) 16:18:09 .
SO-50 25 Jun 16:20:09 16:24:10 30° 308° (NW) 16:28:10 436.795
ITAMSAT 1 25 Jun 16:38:13 16:43:25 82° 256° (WSW) 16:48:40 435.822/435.867
SRMSAT 25 Jun 16:46:08 16:47:36 11° 169° (SSE) 16:49:04 437.500
JUGNU 25 Jun 16:47:57 16:51:00 14° 184° (S) 16:54:03 437.505
Tancredo 1 25 Jun 17:03:52 17:06:17 21° 229° (SW) 17:08:41 437.200
MOZHAYETS 4 25 Jun 17:06:47 17:11:21 65° 101° (E) 17:15:52
AO-7 25 Jun 17:10:56 17:18:59 54° 257° (WSW) 17:27:09 .
ISS 25 Jun 17:22:00 17:25:01 34° 227° (SW) 17:28:02 437.550
ITUPSAT 1 25 Jun 17:25:49 17:30:30 53° 287° (WNW) 17:35:07 437.325
BEESAT 25 Jun 17:35:59 17:40:28 41° 289° (WNW) 17:44:54 436.000
CUBESAT XI-V 25 Jun 17:47:58 17:52:02 31° 97° (E) 17:56:06 437.345
DOVE 4 25 Jun 17:57:22 18:00:33 22° 69° (ENE) 18:03:49 437.250
XW-2C 25 Jun 18:14:03 18:16:00 14° 68° (ENE) 18:17:58 145.795 - 145.815
KAITUO 1B 25 Jun 18:27:52 18:30:05 15° 68° (ENE) 18:32:18 145.475/437.950
SRMSAT 25 Jun 18:32:47 18:35:56 15° 179° (S) 18:39:05 437.500
KKS-1 25 Jun 18:40:21 18:44:51 79° 103° (ESE) 18:49:20 437.445
MOZHAYETS 4 25 Jun 18:46:22 18:47:54 12° 296° (WNW) 18:49:27
NUDT-PHONESAT 25 Jun 19:02:02 19:05:33 39° 74° (ENE) 19:09:04 437.300
STARS 25 Jun 19:09:59 19:14:26 69° 103° (ESE) 19:18:50 437.465
HO-68 25 Jun 19:14:01 19:19:49 27° 62° (ENE) 19:25:36 435.675
XW-2F 25 Jun 19:17:25 19:21:15 85° 77° (ENE) 19:25:05 145.980 - 146.000
CUTE-I 25 Jun 19:21:08 19:26:27 81° 76° (ENE) 19:31:49 437.470
XW-2D 25 Jun 19:21:27 19:25:17 78° 257° (WSW) 19:29:08 145.860 - 145.880
CUBESAT XI-V 25 Jun 19:25:39 19:29:13 23° 291° (WNW) 19:32:47 437.345
LilacSat-2 25 Jun 19:29:52 19:33:40 57° 259° (W) 19:37:30 437.200
XW-2B 25 Jun 19:30:30 19:34:18 61° 260° (W) 19:38:07 145.730 - 145.750
DOVE 4 25 Jun 19:34:41 19:38:08 25° 265° (W) 19:41:39 437.250
XW-2C 25 Jun 19:46:16 19:49:51 36° 262° (W) 19:53:25 145.795 - 145.815
XW-2A 25 Jun 19:51:45 19:54:09 18° 70° (ENE) 19:56:32 145.665 - 145.685
KAITUO 1B 25 Jun 20:00:24 20:03:47 31° 263° (W) 20:07:12 145.475/437.950
STRAND 1 25 Jun 20:02:38 20:04:53 13° 91° (E) 20:07:09 437.568
SEEDS 25 Jun 20:04:45 20:08:16 26° 71° (ENE) 20:11:46 437.485
RS-15 25 Jun 20:06:07 20:13:19 18° 98° (E) 20:20:37 29.354- 29.394
CUTE 1.7 + AOD 2 25 Jun 20:21:36 20:25:49 69° 76° (ENE) 20:30:03 437.475
SRMSAT 25 Jun 20:21:58 20:24:16 12° 189° (S) 20:26:33 437.500
AO-73 25 Jun 20:29:31 20:31:29 13° 65° (ENE) 20:33:27 145.935
CUBEBUG 2 25 Jun 20:33:49 20:38:11 47° 73° (ENE) 20:42:42 437.445
NUDT-PHONESAT 25 Jun 20:38:20 20:39:35 11° 268° (W) 20:40:51 437.300
STARS 25 Jun 20:49:18 20:50:08 10° 297° (WNW) 20:50:57 437.465
AAUSAT CUBESAT 2 25 Jun 20:54:50 20:58:46 45° 74° (ENE) 21:02:42 437.432
Oscar 11 25 Jun 20:55:31 20:58:25 18° 68° (ENE) 21:01:20 .
PCSat 25 Jun 20:55:45 20:57:29 11° 43° (NE) 20:59:12 145.827
HO-68 25 Jun 21:00:04 21:07:04 55° 259° (WSW) 21:14:08 435.675
ZACube-1 25 Jun 21:02:15 21:06:16 32° 71° (ENE) 21:10:20 437.345
CUTE-I 25 Jun 21:06:09 21:07:04 10° 270° (W) 21:07:57 437.470
UWE-3 25 Jun 21:07:04 21:11:35 66° 75° (ENE) 21:16:13 435.000/436.395/437.385
XW-2A 25 Jun 21:24:05 21:26:43 21° 264° (W) 21:29:24 145.665 - 145.685
STRAND 1 25 Jun 21:39:21 21:44:28 65° 286° (WNW) 21:49:32 437.568
SEEDS 25 Jun 21:40:37 21:43:53 22° 265° (W) 21:47:09 437.485
NO-84 25 Jun 21:43:30 21:46:24 21° 123° (ESE) 21:49:29 435.350 FM
BEESAT 3 25 Jun 21:48:02 21:51:55 60° 118° (ESE) 21:55:52 437.485
AO-85 25 Jun 21:55:02 21:59:05 60° 301° (WNW) 22:03:01 145.980
AO-73 25 Jun 22:02:41 22:07:09 59° 260° (W) 22:11:41 145.935
RS-15 25 Jun 22:11:45 22:23:50 82° 117° (ESE) 22:36:15 29.354- 29.394
CUBEBUG 2 25 Jun 22:12:28 22:15:02 15° 269° (W) 22:17:40 437.445
FO-29 25 Jun 22:17:59 22:23:32 21° 90° (E) 22:28:58 435.910
DELFI C3 25 Jun 22:19:54 22:23:32 37° 73° (ENE) 22:27:10 145.870
YUBILEINY 25 Jun 22:20:50 22:28:36 37° 86° (E) 22:36:24 435.215
Oscar 11 25 Jun 22:30:15 22:34:15 36° 262° (W) 22:38:16 .
AAUSAT CUBESAT 2 25 Jun 22:32:48 22:34:26 12° 268° (W) 22:36:04 437.432
PCSat 25 Jun 22:36:22 22:41:49 74° 62° (ENE) 22:47:13 145.827
ZACube-1 25 Jun 22:39:03 22:42:32 22° 266° (W) 22:46:04 437.345
PRISM 25 Jun 22:42:09 22:43:18 11° 92° (E) 22:44:27 437.425
BEESAT 2 25 Jun 22:47:24 22:51:22 85° 300° (WNW) 22:55:25 435.950
UWE-3 25 Jun 22:47:42 22:48:27 10° 271° (W) 22:49:12 435.000/436.395/437.385
TIGRISAT 25 Jun 22:52:55 22:55:48 16° 92° (E) 22:58:39 435.000
O/OREOS (USA 219) 25 Jun 22:54:22 22:58:54 69° 292° (WNW) 23:03:25 437.305
SO-50 25 Jun 23:13:42 23:16:23 15° 45° (NE) 23:19:04 436.795
EO-88 25 Jun 23:15:03 23:18:39 58° 259° (W) 23:22:18 145.990 - 145.960
ESTCUBE 1 25 Jun 23:18:04 23:19:36 12° 64° (ENE) 23:21:08 437.505/2401.250
NO-84 25 Jun 23:20:01 23:23:42 40° 321° (NW) 23:27:40 435.350 FM
BEESAT 3 25 Jun 23:28:01 23:29:53 13° 314° (NW) 23:31:45 437.485
UNISAT 6 25 Jun 23:33:48 23:38:20 51° 99° (E) 23:42:45 437.425
LO-87 25 Jun 23:37:25 23:40:24 26° 72° (ENE) 23:43:25 145.935 - 145.965
M-CUBED/EXP-1 PRIME 25 Jun 23:55:04 23:58:45 55° 290° (WNW) 00:02:44 437.505
DELFI C3 25 Jun 23:56:36 23:58:26 13° 267° (W) 00:00:17 145.870
FO-29 26 Jun 00:01:14 00:09:06 76° 286° (WNW) 00:16:47 435.910
PRISM 26 Jun 00:14:50 00:18:49 50° 286° (WNW) 00:22:47 437.425
YUBILEINY 26 Jun 00:16:53 00:25:08 44° 284° (WNW) 00:33:31 435.215
PCSat 26 Jun 00:22:14 00:24:30 13° 257° (WSW) 00:26:45 145.827
RS-15 26 Jun 00:27:11 00:37:49 33° 321° (NW) 00:48:37 29.354- 29.394
TIGRISAT 26 Jun 00:28:16 00:32:40 42° 287° (WNW) 00:36:56 435.000
QB50P2 26 Jun 00:31:17 00:32:59 12° 92° (E) 00:34:41 145.880/145.840
AIST 2D 26 Jun 00:36:52 00:39:53 26° 97° (E) 00:42:51 435.315
ESTCUBE 1 26 Jun 00:51:23 00:55:50 63° 259° (W) 01:00:18 437.505/2401.250
VELOX 1 26 Jun 00:52:07 00:55:52 28° 70° (ENE) 00:59:37 145.980
SO-50 26 Jun 00:52:45 00:57:14 63° 243° (WSW) 01:01:44 436.795
EO-79 26 Jun 00:54:18 00:57:34 21° 95° (E) 01:00:49 145.935-145.965
50 SAT 26 Jun 00:57:29 00:58:05 10° 67° (ENE) 00:58:42 437.505
NO-84 26 Jun 01:01:22 01:02:19 11° 340° (NNW) 01:03:17 435.350 FM
DUCHIFAT 1 26 Jun 01:07:43 01:11:10 24° 96° (E) 01:14:35 145.980
SPROUT 26 Jun 01:09:58 01:14:04 49° 74° (ENE) 01:18:12 437.525
LO-87 26 Jun 01:11:43 01:13:50 15° 266° (W) 01:15:58 145.935 - 145.965
DX 1 26 Jun 01:11:55 01:14:25 15° 66° (ENE) 01:16:57 434.975-435.025
UNISAT 6 26 Jun 01:12:00 01:14:32 15° 295° (WNW) 01:17:03 437.425
NANOSAT C BR1 26 Jun 01:16:05 01:19:59 34° 98° (E) 01:23:50 145.865
UKube-1 26 Jun 01:28:14 01:30:46 15° 66° (ENE) 01:33:17 .
FO-29 26 Jun 01:48:46 01:52:49 15° 303° (WNW) 01:56:52 435.910
POLYITAN 1 26 Jun 01:53:54 01:58:11 74° 283° (WNW) 02:02:25 437.675
QB50P2 26 Jun 02:04:52 02:09:01 49° 286° (WNW) 02:13:07 145.880/145.840
AIST 2D 26 Jun 02:10:51 02:12:49 14° 291° (WNW) 02:14:46 435.315
BUGSAT 1 26 Jun 02:15:43 02:19:47 42° 99° (E) 02:23:46 437.445
50 SAT 26 Jun 02:27:23 02:30:30 35° 261° (W) 02:33:39 437.505
VELOX 1 26 Jun 02:28:52 02:32:16 22° 265° (W) 02:35:41 145.980
EO-79 26 Jun 02:29:37 02:33:17 28° 290° (WNW) 02:36:56 145.935-145.965
Oscar 19 26 Jun 02:36:20 02:40:36 26° 96° (E) 02:44:51 437.125/150
DUCHIFAT 1 26 Jun 02:43:15 02:46:43 25° 290° (WNW) 02:50:10 145.980
DX 1 26 Jun 02:46:07 02:50:13 42° 261° (W) 02:54:21 434.975-435.025
SPROUT 26 Jun 02:48:31 02:50:12 12° 268° (W) 02:51:55 437.525
RS-15 26 Jun 02:49:01 02:56:04 16° 355° (N) 03:03:03 29.354- 29.394
NANOSAT C BR1 26 Jun 02:52:31 02:55:24 18° 293° (WNW) 02:58:17 145.865
ITUPSAT 1 26 Jun 02:54:57 02:57:21 14° 64° (ENE) 02:59:45 437.325
UKube-1 26 Jun 03:02:21 03:06:24 41° 261° (W) 03:10:29 .
BEESAT 26 Jun 03:03:49 03:06:56 18° 65° (ENE) 03:10:03 436.000
Gurwin Techsat 1B 26 Jun 03:32:40 03:37:56 59° 101° (E) 03:43:10 435.225
BUGSAT 1 26 Jun 03:52:20 03:54:43 15° 294° (WNW) 03:57:07 437.445
MOZHAYETS 4 26 Jun 04:06:04 04:10:30 46° 73° (ENE) 04:14:56
Oscar 19 26 Jun 04:15:23 04:19:53 32° 291° (WNW) 04:24:23 437.125/150
NO-84 26 Jun 04:19:14 04:21:13 13° 23° (NNE) 04:23:10 435.350 FM
ITUPSAT 1 26 Jun 04:29:54 04:34:38 60° 259° (W) 04:39:24 437.325
BEESAT 26 Jun 04:39:44 04:44:18 45° 260° (W) 04:48:55 436.000
CUBESAT XI-V 26 Jun 04:49:14 04:52:56 24° 69° (ENE) 04:56:38 437.345
ITAMSAT 1 26 Jun 04:53:32 04:58:30 42° 99° (E) 05:03:24 435.822/435.867
RS-15 26 Jun 05:05:13 05:15:00 26° 32° (NNE) 05:24:23 29.354- 29.394
Gurwin Techsat 1B 26 Jun 05:14:07 05:17:21 16° 297° (WNW) 05:20:34 435.225
AO-7 26 Jun 05:14:45 05:23:03 62° 104° (ESE) 05:31:17 .
KKS-1 26 Jun 05:35:52 05:40:10 53° 74° (ENE) 05:44:30 437.445
MOZHAYETS 4 26 Jun 05:45:11 05:47:51 15° 268° (W) 05:50:31
NO-84 26 Jun 05:55:24 05:59:41 51° 42° (NE) 06:03:50 435.350 FM
STARS 26 Jun 06:04:06 06:08:15 44° 73° (ENE) 06:12:26 437.465
BEESAT 3 26 Jun 06:07:34 06:10:24 18° 49° (NE) 06:13:13 437.485
CUBESAT XI-V 26 Jun 06:26:06 06:30:08 29° 263° (W) 06:34:12 437.345
AO-85 26 Jun 06:27:36 06:31:40 53° 57° (ENE) 06:36:00 145.980
ITAMSAT 1 26 Jun 06:33:42 06:37:38 22° 294° (WNW) 06:41:33 435.822/435.867
XW-2D 26 Jun 06:58:02 06:59:37 12° 92° (E) 07:01:11 145.860 - 145.880
LilacSat-2 26 Jun 07:06:17 07:08:45 17° 94° (E) 07:11:12 437.200
XW-2B 26 Jun 07:06:25 07:08:42 15° 93° (E) 07:10:57 145.730 - 145.750
BEESAT 2 26 Jun 07:07:26 07:10:56 27° 53° (NE) 07:14:23 435.950
AO-7 26 Jun 07:08:24 07:15:14 29° 301° (WNW) 07:22:04 .
KKS-1 26 Jun 07:15:17 07:17:00 12° 268° (W) 07:18:43 437.445
STRAND 1 26 Jun 07:16:11 07:19:13 16° 64° (ENE) 07:22:16 437.568
RS-15 26 Jun 07:17:38 07:29:50 79° 59° (ENE) 07:41:20 29.354- 29.394
XW-2C 26 Jun 07:21:14 07:24:21 24° 96° (E) 07:27:24 145.795 - 145.815
O/OREOS (USA 219) 26 Jun 07:29:00 07:31:24 14° 57° (ENE) 07:33:46 437.305
DOVE 4 26 Jun 07:33:38 07:38:37 89° 110° (ESE) 07:43:50 437.250
KAITUO 1B 26 Jun 07:33:44 07:36:52 26° 96° (E) 07:39:59 145.475/437.950
NO-84 26 Jun 07:33:52 07:36:56 19° 238° (WSW) 07:39:53 435.350 FM
CUTE-I 26 Jun 07:40:41 07:45:43 39° 98° (E) 07:50:42 437.470
STARS 26 Jun 07:42:26 07:44:47 14° 267° (W) 07:47:09 437.465
BEESAT 3 26 Jun 07:44:25 07:48:06 36° 246° (WSW) 07:51:43 437.485
Tancredo 1 26 Jun 07:57:18 07:59:41 22° 131° (SE) 08:02:05 437.200
NUDT-PHONESAT 26 Jun 08:08:04 08:11:46 78° 102° (ESE) 08:15:24 437.300
AO-85 26 Jun 08:09:46 08:11:41 13° 250° (WSW) 08:13:39 145.980
CUTE 1.7 + AOD 2 26 Jun 08:10:15 08:12:25 14° 92° (E) 08:14:35 437.475
ISS 26 Jun 08:24:25 08:26:55 20° 130° (SE) 08:29:26 437.550
XW-2F 26 Jun 08:25:53 08:29:27 44° 286° (WNW) 08:33:00 145.980 - 146.000
CUBEBUG 2 26 Jun 08:28:56 08:30:55 12° 90° (E) 08:32:53 437.445
XW-2D 26 Jun 08:30:27 08:33:56 36° 287° (WNW) 08:37:22 145.860 - 145.880
HO-68 26 Jun 08:30:30 08:36:54 34° 97° (E) 08:43:12 435.675
YUBILEINY 26 Jun 08:35:12 08:39:55 15° 63° (ENE) 08:44:36 435.215
XW-2B 26 Jun 08:39:38 08:42:54 29° 288° (WNW) 08:46:10 145.730 - 145.750
LilacSat-2 26 Jun 08:39:48 08:43:02 27° 288° (WNW) 08:46:14 437.200
BEESAT 2 26 Jun 08:45:19 08:48:32 23° 248° (WSW) 08:51:44 435.950
XW-2A 26 Jun 08:47:35 08:50:24 24° 96° (E) 08:53:12 145.665 - 145.685
STRAND 1 26 Jun 08:52:50 08:57:53 58° 260° (W) 09:02:57 437.568
XW-2C 26 Jun 08:55:41 08:58:21 19° 291° (WNW) 09:01:00 145.795 - 145.815
UWE-3 26 Jun 09:00:22 09:03:13 16° 92° (E) 09:05:59 435.000/436.395/437.385
O/OREOS (USA 219) 26 Jun 09:06:45 09:11:06 52° 254° (WSW) 09:15:25 437.305
KAITUO 1B 26 Jun 09:08:14 09:10:40 17° 291° (WNW) 09:13:04 145.475/437.950
CUTE-I 26 Jun 09:21:13 09:25:30 25° 294° (WNW) 09:29:46 437.470
SEEDS 26 Jun 09:25:22 09:29:31 70° 101° (E) 09:33:39 437.485
RS-15 26 Jun 09:31:54 09:40:51 26° 259° (W) 09:49:32 29.354- 29.394
Tancredo 1 26 Jun 09:32:29 09:35:09 28° 326° (NNW) 09:37:51 437.200
CUTE 1.7 + AOD 2 26 Jun 09:44:28 09:48:25 41° 287° (WNW) 09:52:21 437.475
TIGRISAT 26 Jun 09:50:35 09:52:14 12° 63° (ENE) 09:53:54 435.000
AO-73 26 Jun 09:53:21 09:57:15 30° 96° (E) 10:01:03 145.935
ISS 26 Jun 10:00:13 10:03:14 34° 326° (NW) 10:06:17 437.550
CUBEBUG 2 26 Jun 10:03:16 10:07:52 56° 286° (WNW) 10:12:20 437.445
FO-29 26 Jun 10:11:06 10:16:37 38° 67° (ENE) 10:22:49 435.910
AAUSAT CUBESAT 2 26 Jun 10:14:06 10:18:11 67° 283° (WNW) 10:22:15 437.432
HO-68 26 Jun 10:17:59 10:24:37 42° 293° (WNW) 10:31:14 435.675
Oscar 11 26 Jun 10:19:18 10:23:27 46° 99° (E) 10:27:34 .
XW-2A 26 Jun 10:20:55 10:22:55 15° 291° (WNW) 10:24:54 145.665 - 145.685
ZACube-1 26 Jun 10:28:28 10:32:55 89° 306° (NW) 10:37:15 437.345
YUBILEINY 26 Jun 10:29:12 10:38:06 83° 83° (E) 10:46:53 435.215
UNISAT 6 26 Jun 10:30:03 10:34:11 34° 71° (ENE) 10:38:24 437.425
UWE-3 26 Jun 10:35:32 10:39:50 41° 287° (WNW) 10:44:00 435.000/436.395/437.385
M-CUBED/EXP-1 PRIME 26 Jun 10:39:26 10:42:43 60° 254° (WSW) 10:45:57 437.505
EO-88 26 Jun 10:47:29 10:49:15 13° 93° (E) 10:51:01 145.990 - 145.960
PRISM 26 Jun 11:01:17 11:05:19 81° 78° (ENE) 11:09:24 437.425
TIGRISAT 26 Jun 11:23:44 11:28:16 66° 259° (W) 11:32:56 435.000
AO-73 26 Jun 11:29:58 11:33:15 21° 292° (WNW) 11:36:29 145.935
DELFI C3 26 Jun 11:33:13 11:37:10 89° 103° (ESE) 11:41:06 145.870
PCSat 26 Jun 11:36:00 11:38:08 12° 103° (ESE) 11:40:16 145.827
EO-79 26 Jun 11:45:51 11:47:40 13° 65° (ENE) 11:49:29 145.935-145.965
FO-29 26 Jun 11:56:28 12:01:42 31° 267° (W) 12:07:34 435.910
Oscar 11 26 Jun 11:56:57 11:59:09 14° 294° (WNW) 12:01:21 .
DUCHIFAT 1 26 Jun 11:58:21 12:00:33 14° 66° (ENE) 12:02:44 145.980
NANOSAT C BR1 26 Jun 12:06:25 12:09:27 19° 68° (ENE) 12:12:31 145.865
UNISAT 6 26 Jun 12:07:30 12:10:56 21° 266° (W) 12:14:26 437.425
EO-88 26 Jun 12:19:45 12:23:00 31° 287° (WNW) 12:26:14 145.990 - 145.960
YUBILEINY 26 Jun 12:28:25 12:33:41 18° 281° (WNW) 12:38:55 435.215
LO-87 26 Jun 12:39:08 12:42:39 45° 99° (E) 12:46:09 145.935 - 145.965
AIST 2D 26 Jun 12:41:08 12:44:37 58° 259° (W) 12:48:09 435.315
POLYITAN 1 26 Jun 12:43:39 12:47:50 59° 75° (ENE) 12:52:04 437.675
ESTCUBE 1 26 Jun 12:46:16 12:50:15 31° 97° (E) 12:54:14 437.505/2401.250
QB50P2 26 Jun 12:54:28 12:58:43 88° 85° (E) 13:03:02 145.880/145.840
BUGSAT 1 26 Jun 13:03:31 13:06:42 22° 69° (ENE) 13:09:56 437.445
PCSat 26 Jun 13:15:24 13:20:49 75° 299° (WNW) 13:26:15 145.827
EO-79 26 Jun 13:18:48 13:22:56 51° 260° (W) 13:27:06 145.935-145.965
DUCHIFAT 1 26 Jun 13:31:44 13:35:47 45° 261° (W) 13:39:52 145.980
NANOSAT C BR1 26 Jun 13:41:09 13:44:55 31° 263° (W) 13:48:43 145.865
Oscar 19 26 Jun 13:50:53 13:55:23 31° 69° (ENE) 13:59:53 437.125/150
50 SAT 26 Jun 13:52:53 13:54:42 14° 94° (E) 13:56:30 437.505
LO-87 26 Jun 14:15:27 14:15:38 10° 294° (WNW) 14:15:49 145.935 - 145.965
VELOX 1 26 Jun 14:19:42 14:24:09 80° 102° (ESE) 14:28:35 145.980
ESTCUBE 1 26 Jun 14:23:27 14:26:50 21° 292° (WNW) 14:30:13 437.505/2401.250
Tancredo 1 26 Jun 14:23:30 14:25:16 14° 26° (NNE) 14:27:02 437.200
AO-7 26 Jun 14:24:10 14:27:53 14° 49° (NE) 14:31:38 .
SPROUT 26 Jun 14:33:22 14:37:37 61° 285° (WNW) 14:41:50 437.525
DX 1 26 Jun 14:36:18 14:40:21 36° 99° (E) 14:44:22 434.975-435.025
BUGSAT 1 26 Jun 14:38:26 14:41:54 26° 264° (W) 14:45:26 437.445
JUGNU 26 Jun 14:44:38 14:47:38 14° 175° (S) 14:50:37 437.505
Gurwin Techsat 1B 26 Jun 14:51:22 14:56:39 76° 75° (ENE) 15:01:59 435.225
UKube-1 26 Jun 14:51:22 14:55:22 35° 99° (E) 14:59:19 .
ISS 26 Jun 14:54:01 14:56:06 16° 25° (NNE) 14:58:12 437.550
PCSat 26 Jun 15:03:16 15:05:07 12° 317° (NW) 15:06:59 145.827
SO-50 26 Jun 15:04:24 15:08:56 72° 118° (ESE) 15:13:28 436.795
